CZ-8A R/B

Last updated on Sun Aug 09 2026 00:02:10 GMT+0000 (Coordinated Universal Time)

1 66004U 25231K 26220.17869475 -.00000050 00000+0 41347-4 0 9996 2 66004 50.0027 178.1159 0116575 47.0870 313.9759 14.30168744 42387
UTC large
Height (km)
Speed (km/s)
/
Latitude / Longitude
Inclination (degrees)
Orbital Period (minutes)
Azimuth
Elevation
Range (km)
Doppler Factor

Next 0 passes for location: London (51.5072 / 0.1276)

No passes found over London.
CZ-8A R/B